This is the latest recevied weather packets stored in our database for station/object KC3LDA. If no packets are shown the sender has not sent any weather packets the latest 10 day(s).
| Time | Temp. | Humidity | Pressure | Rain* | Wind** | Luminosity | Snow |
|---|---|---|---|---|---|---|---|
| 1777807017 | 7.22° C | 63% | 1007.9 hPa | 0 mm | - | 102 W/m² | - |
| 1777806714 | 7.22° C | 65% | 1007.9 hPa | 0 mm | - | 90 W/m² | - |
| 1777806410 | 7.22° C | 64% | 1007.8 hPa | 0 mm | - | 84 W/m² | - |
| 1777806108 | 7.22° C | 64% | 1007.6 hPa | 0 mm | - | 82 W/m² | - |
| 1777805804 | 7.22° C | 64% | 1007.7 hPa | 0 mm | - | 67 W/m² | - |
| 1777804292 | 7.22° C | 64% | 1007.4 hPa | 0 mm | - | 31 W/m² | - |
| 1777803989 | 7.22° C | 65% | 1007 hPa | 0 mm | - | 26 W/m² | - |
| 1777803685 | 7.22° C | 65% | 1006.9 hPa | 0 mm | - | 22 W/m² | - |
| 1777803381 | 7.22° C | 67% | 1007 hPa | 0 mm | - | 18 W/m² | - |
| 1777803079 | 7.22° C | 66% | 1007 hPa | 0 mm | - | 13 W/m² | - |
| 1777802776 | 7.22° C | 64% | 1007 hPa | 0 mm | - | 10 W/m² | - |
| 1777802474 | 7.22° C | 66% | 1006.9 hPa | 0 mm | - | 6 W/m² | - |
| 1777802172 | 7.22° C | 65% | 1006.9 hPa | 0 mm | - | 4 W/m² | - |
| 1777801870 | 7.22° C | 64% | 1006.6 hPa | 0 mm | - | 3 W/m² | - |
| 1777801566 | 7.22° C | 64% | 1006.8 hPa | 0 mm | - | 1 W/m² | - |
| 1777801263 | 7.22° C | 64% | 1006.6 hPa | 0 mm | - | 1 W/m² | - |
| 1777800959 | 7.22° C | 64% | 1006.7 hPa | 0 mm | - | 0 W/m² | - |
| 1777800657 | 7.22° C | 64% | 1006.9 hPa | 0 mm | - | 0 W/m² | - |
| 1777800352 | 7.22° C | 64% | 1006.6 hPa | 0 mm | - | 0 W/m² | - |
| 1777800049 | 7.22° C | 63% | 1006.5 hPa | 0 mm | - | 0 W/m² | - |
| 1777799744 | 7.78° C | 62% | 1006.8 hPa | 0 mm | - | 0 W/m² | - |
| 1777799442 | 7.78° C | 64% | 1006.6 hPa | 0 mm | - | 0 W/m² | - |
| 1777799137 | 7.78° C | 64% | 1006.6 hPa | 0 mm | - | 0 W/m² | - |
| 1777798833 | 7.78° C | 63% | 1006.5 hPa | 0 mm | - | 0 W/m² | - |
| 1777798529 | 7.78° C | 63% | 1006.7 hPa | 0 mm | - | 0 W/m² | - |
* Rain latest hour (hover to see other rain measurements)
** Current wind speed in m/s (hover to see current wind gust speed)